Skip Page Navigation
NASA JPL Caltech
NASA Logo - Jet Propulsion Laboratory + View the NASA Portal
+ Center for Near-Earth Object Studies
JPL Home Earth Solar System Stars & Galaxies Technology
JPL Solar System Dynamics
BODIES ORBITS EPHEMERIDES TOOLS PHYSICAL DATA DISCOVERY FAQ SITE MAP
IMPORTANT: The SSD Announcement email list is now available. Major changes are coming in the near future, including possible hostname and/or URL changes. To be notified of such changes, subscribe to this email list.

Please visit this page for more details.


JPL Small-Body Database Browser
Search: [ help ]  
305172 (2007 VQ280)
Classification: Main-belt Asteroid          SPK-ID: 2305172
Ephemeris | Orbit Diagram | Orbital Elements | Mission Design | Physical Parameters | Discovery Circumstances | Close-Approach Data ]

[ show orbit diagram ]
Orbital Elements at Epoch 2458600.5 (2019-Apr-27.0) TDB
Reference: JPL 11 (heliocentric ecliptic J2000)
 Element Value Uncertainty (1-sigma)   Units 
e .1525412142935458 5.0277e-08  
a 2.554564988127146 2.357e-08 au
q 2.164888542846454 1.37e-07 au
i 2.087155867855502 1.0253e-05 deg
node 244.385867215785 0.00021437 deg
peri 220.169353786481 0.00022434 deg
M 252.397891045809 6.5093e-05 deg
tp 2459046.250811931559
(2020-Jul-15.75081193)
0.0002741 TDB
period 1491.330363828442
4.08
2.064e-05
5.651e-08
d
yr
n .2413952057382058 3.3409e-09 deg/d
Q 2.944241433407839 2.7165e-08 au
  Orbit Determination Parameters
   # obs. used (total)      151  
   data-arc span      5830 days (15.96 yr)  
   first obs. used      2003-12-01  
   last obs. used      2019-11-17  
   planetary ephem.      DE431  
   SB-pert. ephem.      SB431-N16  
   condition code      0  
   norm. resid. RMS      .62461  
   source      ORB  
   producer      Otto Matic  
   solution date      2019-Dec-14 18:48:32  

Additional Information
 Earth MOID = 1.18242 au 
 Jupiter MOID = 2.19377 au 
 T_jup = 3.421 
[ show covariance matrix ]

Ephemeris | Orbit Diagram | Orbital Elements | Mission Design | Physical Parameters | Discovery Circumstances | Close-Approach Data ]

Physical Parameter Table
Parameter Symbol Value Units Sigma Reference Notes
absolute magnitude H 17.6   n/a MPO494621  

305172 (2007 VQ280)          Discovered 2007-Nov-14 by Spacewatch at Kitt Peak
Reference: 20111110/Numbers.arcLast Updated: 2011-11-14

[ show close-approach data ]
Alternate Designations
 2007 VQ280 = 2003 YL18 
Ephemeris | Orbit Diagram | Orbital Elements | Mission Design | Physical Parameters | Discovery Circumstances | Close-Approach Data ]
ABOUT SSD CREDITS/AWARDS PRIVACY/COPYRIGHT GLOSSARY LINKS
FirstGov 2020-Jan-20 16:09 UT
(server date/time)  
NASA Home Page
Site Manager:   Ryan S. Park
Webmaster  Alan B. Chamberlin